Location: Kervinic
(48.4279°N, 4.7373°W)
Time: 15:29:29
(UTC+00:00)

Cosmos 192 - Pass Details

Date: 09 April 2020
Orbit: 700 x 714 km, 74.0° (Epoch: 02 June)

Event Time Altitude Azimuth Distance (km) Brightness Sun altitude
Rises 20:33:28 0° 339° (NNW) 3,118 8.6 -14.9°
Reaches altitude 10° 20:35:50 10° 342° (NNW) 2,197 7.6 -15.2°
Maximum altitude 20:40:46 64° 64° (ENE) 793 4.4 -15.9°
Enters shadow 20:43:24 27° 138° (SE) 1,358 5.2 -16.3°
